Regional Weather Roundup
Issued by NWS

Home | Current Version | Previous Version | Text Only | Print | Product List | Glossary Off
Versions: 1 2 3 4 5 6 7 8 9 10 11 12 13 14 15 16 17 18 19 20 21 22 23 24 25 26 27 28 29 30 31 32 33 34 35 36 37 38 39 40 41 42 43 44 45 46 47 48 49 50

000
ASUS45 KTFX 192004
RWRMT
MONTANA HOURLY WEATHER ROUNDUP
NATIONAL WEATHER SERVICE GREAT FALLS MT
204 PM MDT SAT APR 19 2014

NOTE: "FAIR" INDICATES FEW OR NO CLOUDS BELOW 12000 FEET WITH NO
SIGNIFICANT WEATHER AND/OR OBSTRUCTIONS TO VISIBILITY.

* THESE STATIONS ARE NOT UNDER NWS QUALITY CONTROL. THEY DO NOT
   REPORT WEATHER SUCH AS PRECIPITATION OR FOG.

MTZ001>007-043-192100-
WEST OF THE DIVIDE
CITY           SKY/WX    TMP DP  RH WIND       PRES   REMARKS
KALISPELL      PTCLDY    55  21  27 SE9G20    29.89F
MISSOULA       PTCLDY    57  19  23 S6        29.90F
BUTTE          SUNNY     57   9  15 SW10G22   29.94F
MULLAN PASS    PTSUNNY   46  19  34 VRB3      29.89S
* ESSEX        N/A       53  15  22 SE6G12     N/A
* LINCOLN      N/A       54  15  21 W8G17      N/A
* LOOKOUT PASS N/A       53  21  29 S5G11      N/A
* POLSON       N/A       57  23  27 SW4        N/A
* SEELEY LAKE  N/A       54  16  22 E3G10      N/A
* THOMP F APT  PTSUNNY   56  13  18 SW9G19     N/A
$$

MTZ008-052>055-192100-
SOUTHWEST MONTANA
CITY           SKY/WX    TMP DP  RH WIND       PRES   REMARKS
BOZEMAN        SUNNY     61  14  16 E5        29.94F
DILLON         SUNNY     61   7  11 SW14G25   29.93F
W YELLOWSTONE  N/A       55  18  23 SW6G14     N/A
* THREE FORKS  SUNNY     61  18  19 N/A        N/A
* BOULDER HILL N/A       54  12  19 S14G21     N/A
* MONIDA PASS  N/A       50  11  21 S11G23     N/A
* RAYNOLDS PAS N/A       47  28  48 SE11G16    N/A
* WHITEHALL    N/A       63   8  11 SW17G27    N/A
* WISE RIVER   N/A       56  12  17 W10G24     N/A
$$

MTZ009>010-012-014-046-048-049-054-192100-
EAST SLOPES AND CENTRAL MONTANA
CITY           SKY/WX    TMP DP  RH WIND       PRES   REMARKS
CUT BANK       PTCLDY    57   7  13 W25G31    29.84F
GREAT FALLS    SUNNY     59  16  18 SW13G26   29.87F
HELENA         SUNNY     61  12  14 VRB5      29.90F
MALMSTROM AFB  SUNNY     61  14  16 S13G25    29.85F
* CONRAD       SUNNY     55  10  16 E8         N/A
* DEARBORN     N/A       59  13  16 S14G24     N/A
* EAST GLACIER N/A       46  11  24 W24G36     N/A
* MONARCH      N/A       51   2  13 SW14G21    N/A
* PENDROY      N/A       54   8  16 S4G10      N/A
* ROGERS PASS  N/A       49   8  19 E11G24     N/A
* SAINT MARY   N/A       46  11  24 SW7G18     N/A
* SWEET GRASS  N/A       53  12  19 W9G19      N/A
$$

MTZ011-013-016-021-035-040-045-047-050-051-192100-
NORTH CENTRAL MONTANA
CITY           SKY/WX    TMP DP  RH WIND       PRES   REMARKS
HAVRE          SUNNY     59  23  25 SW14G21   29.88F
LEWISTOWN      SUNNY     55   7  14 W7        29.91F
* CHESTER      N/A       53  18  25 SW9G20     N/A
* DENTON       N/A       61  13  15 W17        N/A
* GEYSER       N/A       58   9  14 SW17       N/A
* JUDITH GAP   N/A       58   9  14 SW14G23    N/A
* LOMA         N/A       59  10  14 W12G20     N/A
$$

MTZ017>020-022>027-061-062-192100-
NORTHEAST MONTANA
CITY           SKY/WX    TMP DP  RH WIND       PRES   REMARKS
GLASGOW        SUNNY     55  36  49 W12       29.92F
GLENDIVE       SUNNY     59  30  33 W15G24    29.96S
JORDAN         SUNNY     59  23  25 W10G18    29.93S
SIDNEY         PTSUNNY   57  36  46 W17G23    29.95F
WOLF POINT     SUNNY     55  36  49 W13G21    29.93F
* BEAVER HILL  N/A       57  31  37 SW17G34    N/A
* CIRCLE       N/A       55  35  47 W7G18      N/A
* LINDSAY DVD  N/A       55  29  37 W17G24     N/A
* NAVAJO       N/A       48  34  59 W11G20     N/A
* SACO         N/A       57  34  42 W12G19     N/A
* SCOBEY APT   SUNNY     52  30  43 W15G21    29.89F
$$

MTZ028>042-056>058-192100-
SOUTHCENTRAL AND SOUTHEAST MONTANA
CITY           SKY/WX    TMP DP  RH WIND       PRES   REMARKS
BAKER          SUNNY     57  28  33 NW14G21   29.98S
BILLINGS       PTCLDY    59  18  20 SW7       29.94F
LIVINGSTON     SUNNY     63  12  13 NW14G24   29.92F
MILES CITY     SUNNY     61  25  25 W12G21    29.96F
* LAUREL APT   SUNNY     59  19  21 NE5        N/A
* ROUNDUP APT  SUNNY     57   9  15 S10G20     N/A
* HYSHAM       N/A       56  14  19 W7G13      N/A
* LAME DEER    N/A       56  16  21 W6G11      N/A
* REED POINT   N/A       61  26  26 NE8        N/A
* ROSCOE HILL  N/A       55  11  17 SE6G15     N/A
$$

REGIONAL REPORTS...DAKOTAS
CITY           SKY/WX    TMP DP  RH WIND       PRES   REMARKS
WILLISTON      CLOUDY    55  34  45 W17G28    29.93R
DICKINSON      SUNNY     59  32  36 NW21G29   29.93R
CROSBY         PTSUNNY   46  36  68 W18G29    29.91R
TIOGA          CLOUDY    48  32  54 NW23G31   29.94R
WATFORD CITY   PTCLDY    54  34  47 W15G21    29.92R
BISMARCK       SUNNY     66  27  23 W22G28    29.92S
GRAND FORKS    PTCLDY    63  39  41 W22       29.84S
FARGO          PTSUNNY   68  28  22 W22       29.89R
RAPID CITY     PTCLDY    61  23  23 SE12      30.02F
$$

REGIONAL REPORTS...WYOMING/IDAHO/WASHINGTON
CITY           SKY/WX    TMP DP  RH WIND       PRES   REMARKS
GILLETTE       PTCLDY    57  25  29 VRB5G16   30.01F
SHERIDAN       SUNNY     61  28  29 E12       29.96F
CODY           PTCLDY    61  27  27 W3        29.94S
YELLOWSTONE LA PTCLDY    46  10  23 VRB7      30.09S
SALMON         PTCLDY    57  18  22 N8        29.92F
MULLAN PASS    PTSUNNY   46  19  34 VRB3      29.89S
SPOKANE        PTSUNNY   57  30  36 SE7       29.83F

$$




USA.gov is the U.S. government's official web portal to all federal, state and local government web resources and services.